Location: Claremont
(33.9858°S, 18.4575°E)
Time: 05:58:47
(UTC+00:00)

Cosmos 1603 - Pass Details

Date: 03 March 2021
Orbit: 829 x 861 km, 71.0° (Epoch: 17 April)

Event Time Altitude Azimuth Distance (km) Brightness Sun altitude
Rises 19:45:02 0° 200° (SSW) 3,403 7.6 -29.0°
Reaches altitude 10° 19:47:30 10° 198° (SSW) 2,463 6.7 -29.5°
Enters shadow 19:52:02 58° 183° (S) 972 4.0 -30.3°
